| time (UTC) | temp F | wind direction | speed knots | gust knots | rain 1hr in | rain 24hr in | rain mn in | humidity % | barometer mb |
| 20260510020021 | 62 | 302 | 10.4 | 15.6 | 0.00 | 0.00 | 0.00 | 74 | 998.3 |
| 20260510014519 | 63 | 355 | 8.7 | 13.0 | 0.00 | 0.00 | 0.00 | 72 | 998.0 |
| 20260510013019 | 63 | 358 | 9.6 | 15.6 | 0.00 | 0.00 | 0.00 | 72 | 997.9 |
| 20260510011527 | 63 | 25 | 10.4 | 13.9 | 0.00 | 0.00 | 0.00 | 71 | 998.2 |
| 20260510010019 | 63 | 15 | 12.2 | 20.9 | 0.00 | 0.00 | 0.00 | 70 | 998.0 |
| 20260510004512 | 63 | 336 | 9.6 | 16.5 | 0.00 | 0.00 | 0.00 | 68 | 998.2 |
| 20260510003110 | 63 | 12 | 7.8 | 14.8 | 0.00 | 0.00 | 0.00 | 71 | 998.1 |
| 20260510001556 | 62 | 349 | 7.8 | 16.5 | 0.00 | 0.00 | 0.00 | 72 | 998.1 |
| 20260510000100 | 62 | 22 | 8.7 | 19.1 | 0.00 | 0.00 | 0.00 | 71 | 998.3 |
| 20260509234603 | 62 | 18 | 10.4 | 16.5 | 0.00 | 0.00 | 0.00 | 73 | 998.4 |
| 20260509233042 | 62 | 22 | 8.7 | 14.8 | 0.00 | 0.00 | 0.00 | 73 | 998.5 |
| 20260509231503 | 62 | 356 | 13.9 | 20.9 | 0.00 | 0.00 | 0.00 | 70 | 998.6 |
| 20260509230016 | 62 | 332 | 10.4 | 21.7 | 0.00 | 0.00 | 0.00 | 71 | 998.6 |
| 20260509224532 | 62 | 337 | 11.3 | 19.1 | 0.00 | 0.00 | 0.00 | 73 | 998.7 |
| 20260509223049 | 62 | 1 | 11.3 | 18.2 | 0.00 | 0.00 | 0.00 | 72 | 998.8 |
| 20260509221502 | 61 | 3 | 11.3 | 19.1 | 0.00 | 0.00 | 0.00 | 75 | 998.6 |
| 20260509220002 | 61 | 353 | 9.6 | 17.4 | 0.00 | 0.00 | 0.00 | 79 | 998.8 |
| 20260509214553 | 61 | 340 | 9.6 | 16.5 | 0.00 | 0.00 | 0.00 | 80 | 998.9 |
| 20260509213002 | 61 | 29 | 7.0 | 13.0 | 0.00 | 0.00 | 0.00 | 78 | 998.7 |
| 20260509211540 | 60 | 353 | 7.0 | 13.9 | 0.00 | 0.00 | 0.00 | 78 | 998.8 |
| 20260509210016 | 60 | 19 | 7.8 | 12.2 | 0.00 | 0.00 | 0.00 | 75 | 998.7 |
| 20260509204600 | 60 | 16 | 7.8 | 14.8 | 0.00 | 0.00 | 0.00 | 75 | 998.8 |
| 20260509203001 | 59 | 7 | 6.1 | 13.9 | 0.00 | 0.00 | 0.00 | 76 | 998.9 |
| 20260509201559 | 59 | 10 | 7.8 | 13.0 | 0.00 | 0.00 | 0.00 | 77 | 998.6 |
| 20260509194540 | 58 | 31 | 7.0 | 13.9 | 0.00 | 0.00 | 0.00 | 77 | 998.4 |
| 20260509193019 | 58 | 357 | 9.6 | 13.0 | 0.00 | 0.00 | 0.00 | 76 | 998.2 |
| 20260509191551 | 58 | 357 | 8.7 | 17.4 | 0.00 | 0.00 | 0.00 | 73 | 998.4 |
| 20260509190034 | 58 | 343 | 11.3 | 19.1 | 0.00 | 0.00 | 0.00 | 74 | 997.9 |
| 20260509184603 | 58 | 37 | 8.7 | 18.2 | 0.00 | 0.00 | 0.00 | 74 | 998.0 |
| 20260509183057 | 57 | 3 | 7.0 | 14.8 | 0.00 | 0.00 | 0.00 | 78 | 998.0 |
| 20260509181544 | 57 | 354 | 5.2 | 11.3 | 0.00 | 0.00 | 0.00 | 79 | 998.0 |
| 20260509180023 | 58 | 353 | 7.8 | 13.0 | 0.00 | 0.00 | 0.00 | 78 | 997.9 |
| 20260509174514 | 58 | 16 | 7.0 | 12.2 | 0.00 | 0.00 | 0.00 | 80 | 997.8 |
| 20260509173015 | 58 | 8 | 9.6 | 17.4 | 0.00 | 0.00 | 0.00 | 80 | 997.9 |
| 20260509171512 | 58 | 344 | 10.4 | 22.6 | 0.00 | 0.00 | 0.00 | 81 | 998.0 |
| 20260509170011 | 58 | 351 | 12.2 | 19.1 | 0.00 | 0.00 | 0.00 | 80 | 998.0 |
| 20260509164512 | 58 | 358 | 12.2 | 20.0 | 0.00 | 0.00 | 0.00 | 78 | 997.9 |
| 20260509163009 | 58 | 36 | 8.7 | 19.1 | 0.00 | 0.00 | 0.00 | 78 | 997.7 |
| 20260509161509 | 58 | 351 | 10.4 | 17.4 | 0.00 | 0.00 | 0.00 | 77 | 997.7 |
| 20260509160009 | 58 | 22 | 11.3 | 19.1 | 0.00 | 0.00 | 0.00 | 75 | 997.5 |
| 20260509154502 | 58 | 31 | 11.3 | 20.9 | 0.00 | 0.00 | 0.00 | 75 | 997.6 |
| 20260509153003 | 58 | 5 | 12.2 | 19.1 | 0.00 | 0.00 | 0.00 | 75 | 997.7 |
| 20260509151501 | 58 | 351 | 12.2 | 17.4 | 0.00 | 0.00 | 0.00 | 75 | 997.9 |
| 20260509150059 | 58 | 20 | 12.2 | 20.9 | 0.00 | 0.00 | 0.00 | 76 | 998.1 |
| 20260509144559 | 58 | 19 | 11.3 | 19.1 | 0.00 | 0.00 | 0.00 | 77 | 998.0 |
| 20260509143054 | 58 | 9 | 10.4 | 16.5 | 0.00 | 0.00 | 0.00 | 76 | 998.4 |
| 20260509141531 | 58 | 21 | 10.4 | 17.4 | 0.00 | 0.00 | 0.00 | 77 | 998.3 |
| 20260509140016 | 58 | 5 | 12.2 | 18.2 | 0.00 | 0.00 | 0.00 | 78 | 998.5 |
| 20260509134602 | 58 | 359 | 12.2 | 18.2 | 0.00 | 0.00 | 0.00 | 81 | 998.3 |
| 20260509133012 | 58 | 4 | 10.4 | 16.5 | 0.00 | 0.00 | 0.00 | 84 | 998.4 |
| 20260509131548 | 58 | 359 | 10.4 | 18.2 | 0.00 | 0.00 | 0.00 | 85 | 998.3 |
| 20260509124526 | 58 | 17 | 9.6 | 18.2 | 0.00 | 0.00 | 0.00 | 82 | 998.1 |
| 20260509123019 | 58 | 28 | 9.6 | 16.5 | 0.00 | 0.00 | 0.00 | 82 | 998.1 |
| 20260509121557 | 58 | 12 | 9.6 | 17.4 | 0.00 | 0.00 | 0.00 | 81 | 998.3 |
| 20260509120030 | 58 | 44 | 9.6 | 16.5 | 0.00 | 0.00 | 0.00 | 79 | 998.7 |
| 20260509114529 | 58 | 11 | 13.9 | 22.6 | 0.00 | 0.00 | 0.00 | 81 | 998.8 |
| 20260509113001 | 58 | 20 | 15.6 | 24.3 | 0.00 | 0.00 | 0.00 | 82 | 998.8 |
| 20260509111523 | 58 | 24 | 13.0 | 21.7 | 0.00 | 0.00 | 0.00 | 79 | 998.8 |
| 20260509110018 | 59 | 339 | 13.0 | 26.9 | 0.00 | 0.00 | 0.00 | 76 | 998.9 |
| 20260509104549 | 59 | 344 | 13.0 | 26.1 | 0.00 | 0.00 | 0.00 | 77 | 998.9 |
| 20260509103117 | 58 | 31 | 13.9 | 23.5 | 0.00 | 0.00 | 0.00 | 79 | 998.9 |
| 20260509100028 | 58 | 23 | 13.0 | 28.7 | 0.00 | 0.00 | 0.00 | 78 | 999.0 |
| 20260509093030 | 59 | 357 | 16.5 | 24.3 | 0.00 | 0.09 | 0.00 | 79 | 999.0 |
| 20260509091521 | 59 | 8 | 13.0 | 22.6 | 0.00 | 0.09 | 0.00 | 79 | 998.8 |
| 20260509090018 | 59 | 20 | 13.0 | 20.0 | 0.00 | 0.09 | 0.00 | 78 | 998.8 |
| 20260509084524 | 59 | 354 | 13.9 | 20.9 | 0.00 | 0.25 | 0.00 | 80 | 999.0 |
| 20260509083014 | 59 | 360 | 11.3 | 22.6 | 0.00 | 0.25 | 0.00 | 78 | 998.8 |
| 20260509081526 | 59 | 339 | 13.0 | 18.2 | 0.00 | 0.25 | 0.00 | 79 | 999.0 |
| 20260509080059 | 59 | 19 | 10.4 | 30.4 | 0.00 | 0.25 | 0.00 | 78 | 998.9 |
| 20260509074542 | 59 | 29 | 15.6 | 29.5 | 0.00 | 0.27 | 0.00 | 81 | 998.4 |
| 20260509073009 | 59 | 322 | 14.8 | 24.3 | 0.00 | 0.27 | 0.00 | 82 | 998.5 |
| 20260509071525 | 59 | 336 | 14.8 | 28.7 | 0.00 | 0.27 | 0.00 | 81 | 998.3 |
| 20260509070019 | 59 | 351 | 20.9 | 29.5 | 0.00 | 0.27 | 0.00 | 81 | 998.0 |
| 20260509063046 | 59 | 11 | 16.5 | 29.5 | 0.00 | 0.34 | 0.00 | 81 | 998.2 |
| 20260509061509 | 59 | 352 | 18.2 | 33.9 | 0.00 | 0.34 | 0.00 | 81 | 998.1 |
| 20260509060057 | 59 | 352 | 14.8 | 28.7 | 0.00 | 0.34 | 0.00 | 81 | 997.8 |
| 20260509054525 | 59 | 355 | 17.4 | 27.8 | 0.00 | 0.34 | 0.00 | 81 | 997.8 |
| 20260509051601 | 60 | 9 | 15.6 | 24.3 | 0.00 | 0.34 | 0.00 | 80 | 998.2 |
| 20260509050011 | 60 | 19 | 12.2 | 20.9 | 0.00 | 0.34 | 0.00 | 80 | 998.1 |
| 20260509044548 | 60 | 18 | 15.6 | 23.5 | 0.00 | 0.34 | 0.00 | 80 | 998.2 |
| 20260509043046 | 61 | 31 | 15.6 | 27.8 | 0.00 | 0.34 | 0.00 | 80 | 998.2 |
| 20260509041527 | 60 | 350 | 14.8 | 30.4 | 0.00 | 0.34 | 0.00 | 82 | 998.2 |
| 20260509040014 | 61 | 2 | 17.4 | 30.4 | 0.00 | 0.34 | 0.00 | 80 | 997.9 |
| 20260509034546 | 61 | 14 | 17.4 | 32.2 | 0.00 | 0.34 | 0.00 | 80 | 997.9 |
| 20260509033025 | 61 | 356 | 18.2 | 30.4 | 0.00 | 0.34 | 0.00 | 81 | 998.1 |
| 20260509031547 | 61 | 31 | 18.2 | 28.7 | 0.00 | 0.34 | 0.00 | 83 | 998.0 |
| 20260509030032 | 61 | 4 | 13.0 | 20.9 | 0.00 | 0.34 | 0.00 | 83 | 997.8 |
| 20260509024600 | 61 | 349 | 17.4 | 25.2 | 0.00 | 0.34 | 0.00 | 84 | 997.9 |
| 20260509023004 | 61 | 9 | 15.6 | 26.9 | 0.00 | 0.34 | 0.00 | 84 | 997.7 |
| 20260509021534 | 61 | 23 | 18.2 | 26.9 | 0.00 | 0.34 | 0.00 | 85 | 997.9 |